Regional Weather Roundup
Issued by NWS

Home | Current Version | Previous Version | Text Only | Print | Product List | Glossary On
Versions: 1 2 3 4 5 6 7 8 9 10 11 12 13 14 15 16 17 18 19 20 21 22 23 24 25 26 27
000
ASUS44 KLIX 261411
RWRLA
LOUISIANA WEATHER ROUNDUP
NATIONAL WEATHER SERVICE NEW ORLEANS LA
900 AM CDT MON SEP 26 2016

NOTE: "FAIR" INDICATES FEW OR NO CLOUDS BELOW 12,000 FEET WITH NO
      SIGNIFICANT WEATHER AND/OR OBSTRUCTIONS TO VISIBILITY.
      SKY/WX - SKY CONDITION AND SIGNIFICANT WEATHER.
      TMP - AIR TEMPERATURE.    DP   - DEWPOINT TEMPERATURE.
      RH  - RELATIVE HUMIDITY.  PRES - PRESSURE.
      HX  - HEAT INDEX.         WCI  - WIND CHILL INDEX.

*  THESE STATIONS ARE NOT NWS OR FAA STATIONS AND ARE NOT UNDER
   NWS QUALITY CONTROL.

LAZ040-048-061>063-065-066-069-261500-
SOUTHEAST LOUISIANA

CITY           SKY/WX    TMP DP  RH WIND       PRES   REMARKS
N.O. AUDUBON     N/A     87  76  67 MISG        N/A  HX  97
N.O. INTL ARPT MOSUNNY   85  74  69 NW7       30.02S
N.O. LAKEFRONT MOSUNNY   85  73  67 N9        30.02F
N.O. DOWNTOWN*   N/A     86  74  67 VRB3      30.03S
RESERVE*       FAIR      81  76  85 N6        30.03S
SLIDELL        MOSUNNY   81  72  74 CALM      30.02S
BATON ROUGE    SUNNY     80  74  81 NW3       30.03S
BOOTHVILLE     MOSUNNY   83  73  72 N7        30.01S
BELLE CHASSE   SUNNY     83  76  79 NE6       30.02S
BOGALUSA*      FAIR      76  69  77 CALM      30.05S
GALLIANO*      SUNNY    N/A N/A N/A N7        30.02S
NEW ROADS*     FAIR      78  73  86 MISG      30.03S
GONZALES*      FAIR      79  75  87 CALM      30.02S
HAMMOND*       SUNNY     81  72  74 CALM      30.03R
HOUMA*         NOT AVBL
PORT FOURCHON* MOSUNNY   82  75  78 N7        30.02R

$$

LAZ041-044-053-054-261500-
SOUTHWEST LOUISIANA

CITY           SKY/WX    TMP DP  RH WIND       PRES   REMARKS
LAKE CHARLES   MOSUNNY   79  75  87 NE6       30.03R
LAFAYETTE      SUNNY     79  73  82 CALM      30.03S
PATTERSON      SUNNY     79  76  90 NE6       30.03S
SALT POINT     NOT AVBL
NEW IBERIA     SUNNY     80  73  79 NE6       30.03S
CHENAULT AIRPK SUNNY     79  75  89 NE6       30.03R

$$

LAZ027-028-261500-
CENTRAL LOUISIANA

CITY           SKY/WX    TMP DP  RH WIND       PRES   REMARKS
FORT POLK      SUNNY     78  72  80 VRB6      30.03R
ALEXANDRIA INT SUNNY     76  71  85 CALM      30.01S
ALEXANDRIA     SUNNY     77  73  87 CALM      30.03R

$$

LAZ001-002-261500-
NORTHWEST LOUISIANA

CITY           SKY/WX    TMP DP  RH WIND       PRES   REMARKS
SHREVEPORT     PTSUNNY   78  71  79 NE13G21   30.06R
BARKSDALE AFB  SUNNY     74  71  92 NE10      30.06R
DTN SHREVEPORT SUNNY     76  70  82 NE7       30.06S

$$

LAZ014-016-261500-
NORTHEAST LOUISIANA

CITY           SKY/WX    TMP DP  RH WIND       PRES   REMARKS
MONROE         PTSUNNY   76  72  87 N13       30.05R
TALLULAH       SUNNY     79  72  79 N7        30.05R

$$





USA.gov is the U.S. government's official web portal to all federal, state and local government web resources and services.